Voltar ao catálogo

STARLINK-5976

AtivoComunicaçõesSSO
NORAD 56343·PAYLOAD·🇺🇸 United States

Lançado Apr 27, 2023 de Vandenberg Space Force Base

Loading…

Próximas Passagens (próximas 24 horas)

TLE

AtualizadoSource: CelesTrak SupGP

Época: Sep 14, 2026, 20:37 UTC

1 56343C 23058AC  26257.85951389  .00056123  00000+0  17426-2 0  2574
2 56343  97.2846 254.6989 0001681  85.0864 177.9462 15.33402611    12

Acompanhe STARLINK-5976 em tempo real com AllMySat

Download on the App Store